Home   Weather   Louisville   Past weeks

Flag for USA Past Weather in Louisville, Kentucky, USA — Yesterday and Last 2 Weeks

Now
74 °F

Partly sunny.


Feels Like: 77 °F
Forecast: 62 / 87 °F
Wind: 12 mph from South

Location: Standiford Field

Current Time: Apr 25, 2017 at 8:34:14 pm

Latest Report: Apr 25, 2017 at 7:56 pm


Visibility: 10 mi

Pressure: 29.65 "Hg

Humidity: 53%

Dew Point: 56 °F

Location of LouisvilleLocation

Past Weather in Louisville — Graph

°F

Louisville Temperature Yesterday

Maximum temperature yesterday: 77 °F (at 3:56 pm)
Minimum temperature yesterday: 53 °F (at 6:56 am)
Average temperature yesterday: 65 °F

High & Low Weather Summary for the Past Weeks

 TemperatureHumidityPressure
High86 °F (Apr 15, 3:56 pm)97% (Apr 16, 9:56 pm)30.38 "Hg (Apr 16, 9:56 pm)
Low47 °F (Apr 23, 5:56 am)17% (Apr 13, 3:56 pm)29.66 "Hg (Apr 25, 6:56 pm)
Average66 °F62%30.06 "Hg
* Reported Apr 10 6:56 pm — Apr 25 6:56 pm, Louisville, Weather by CustomWeather, © 2017

Note: Actual official high and low records may vary slightly from our data, if they occured in-between our weather recording intervals... More about our weather records

Advertising

Louisville Weather History for the Previous 24 Hours

Scroll right to see more
 ConditionsComfort  
Time TempWeatherWind HumidityBarometerVisibility
6:56 pm
Tue, Apr 25
76 °FScattered clouds.9 mph50%29.66 "Hg10 mi
5:56 pm77 °FScattered clouds.6 mph50%29.67 "Hg10 mi
4:56 pm76 °FPartly sunny.7 mph50%29.68 "Hg10 mi
3:56 pm75 °FPartly sunny.6 mph50%29.70 "Hg10 mi
2:56 pm73 °FPartly sunny.No wind53%29.72 "Hg10 mi
1:56 pm72 °FPartly sunny.6 mph55%29.74 "Hg10 mi
12:56 pm72 °FPartly sunny.No wind55%29.76 "Hg10 mi
11:56 am69 °FPassing clouds.5 mph63%29.77 "Hg10 mi
10:56 am66 °FScattered clouds.No wind68%29.78 "Hg10 mi
9:56 am63 °FPassing clouds.5 mph75%29.78 "Hg10 mi
8:56 am60 °FPassing clouds.7 mph80%29.79 "Hg10 mi
7:56 am58 °FPassing clouds.No wind87%29.78 "Hg10 mi
6:56 am57 °FPassing clouds.3 mph87%29.77 "Hg10 mi
5:56 am57 °FClear.3 mph87%29.76 "Hg10 mi
4:56 am59 °FClear.No wind81%29.75 "Hg10 mi
3:56 am59 °FPassing clouds.No wind81%29.75 "Hg10 mi
2:56 am59 °FPassing clouds.No wind81%29.75 "Hg10 mi
1:56 am61 °FPassing clouds.3 mph75%29.75 "Hg10 mi
12:56 am62 °FPassing clouds.6 mph73%29.76 "Hg10 mi
11:56 pm
Mon, Apr 24
63 °FPassing clouds.5 mph68%29.76 "Hg10 mi
10:56 pm64 °FPassing clouds.6 mph65%29.77 "Hg10 mi
9:56 pm66 °FPassing clouds.7 mph63%29.77 "Hg10 mi
8:56 pm68 °FPassing clouds.12 mph59%29.76 "Hg10 mi
Weather by CustomWeather, © 2017

See weather overviewHow to use our weather pages